Regional Weather Roundup
Issued by NWS Huntsville, AL

Home | Current Version | Previous Version | Text Only | Print | Product List | Glossary On
Versions: 1 2 3 4 5 6 7 8 9 10 11 12 13 14 15 16 17 18 19 20 21 22 23 24 25 26 27
000
ASUS44 KHUN 060210
RWRHUN

WEATHER ROUNDUP FOR THE TENNESSEE VALLEY
NATIONAL WEATHER SERVICE HUNTSVILLE AL
900 PM CDT THU MAY 05 2016

ALZ001>004-060300-
NORTHWEST ALABAMA

CITY           SKY/WX    TMP DP  RH WIND       PRES   REMARKS
SHOALS AIRPORT CLEAR     57  39  51 NE7       29.98R
SHOALS TVA RES   N/A     55 N/A N/A MISG        N/A
$$

ALZ005>007-016-060300-
NORTH CENTRAL ALABAMA

CITY           SKY/WX    TMP DP  RH WIND       PRES   REMARKS
DECATUR AP     CLEAR     53  40  61 N9        29.96R
HUNTSVILLE AP  CLEAR     54  39  57 N8        29.95R
HUN NWS/UAH      N/A     54  37  52 N5          N/A
MERIDIANVILLE  CLEAR     50  36  57 CALM      29.95R
REDSTONE ARSN  CLEAR     52  39  62 N6        29.94R
VINEMONT AP    FAIR      53  39  59 N8        29.96R
$$

ALZ008>010-060300-
NORTHEAST ALABAMA

CITY           SKY/WX    TMP DP  RH WIND       PRES   REMARKS
ALBERTVILLE    CLEAR     52  43  71 N10       29.92R
FORT PAYNE     CLEAR     46  37  71 CALM      29.92R
SCOTTSBORO AP  CLEAR     50  41  71 N5        29.94R
SCOTTSBORO HCN   N/A     48 N/A N/A MISG        N/A
VALLEY HEAD      N/A     45 N/A N/A MISG        N/A
$$

TNZ076-096-097-060300-
SOUTHEASTERN MIDDLE TENNESSEE

CITY           SKY/WX    TMP DP  RH WIND       PRES   REMARKS
TULLAHOMA      PTCLDY    50  39  66 N8        29.95R
WINCHESTER     CLOUDY    50  41  71 CALM      29.94S
$$

...SURROUNDING SITES...

CITY           SKY/WX    TMP DP  RH WIND       PRES   REMARKS
ATLANTA        PTCLDY    52  36  54 N20       29.86R
ANNISTON       CLEAR     57  37  47 NE9       29.91R
BIRMINGHAM     CLEAR     59  42  53 N9        29.93R
CHATTANOOGA    MOCLDY    50  42  74 NW6       29.92R
DALTON         PTCLDY    46  43  87 NW3       29.91R
GADSDEN        CLEAR     53  41  63 N6        29.93R
GOLDEN TRNGL   CLEAR     61  41  48 N7        29.93R
HALEYVILLE     FAIR      54  42  64 N6        29.97R
JACKSON TN     CLEAR     53  42  66 N6        30.00R
MEMPHIS        CLEAR     63  42  46 NE12      29.98R
NASHVILLE      CLOUDY    55  42  61 NW8       29.97R
OXFORD MS      FAIR      55  41  58 CALM      29.98R
ROME           CLEAR     49  39  68 CALM      29.91R
SAVANNAH       CLEAR     54  43  66 N7        29.98R
TUPELO         CLEAR     58  43  57 N10       29.95R
TUSCALOOSA     CLEAR     63  41  44 N12       29.91R
$$

...GULF COAST WEATHER...

CITY           SKY/WX    TMP DP  RH WIND       PRES   REMARKS
GULFPORT       CLEAR     68  44  42 N10       29.91R
PASCAGOULA     CLEAR     64  46  52 NW5       29.91R
MOBILE         PTCLDY    61  45  55 NW7       29.91R
GULF SHORES    CLEAR     62  47  58 W7        29.89R
PENSACOLA      CLEAR     61  44  53 CALM      29.88R
DESTIN         CLEAR     70  43  37 N7        29.87R
PANAMA CITY    CLEAR     67  40  37 N8        29.86R
APPALACHICOLA  CLEAR     64  44  48 N8        29.84R
$$





USA.gov is the U.S. government's official web portal to all federal, state and local government web resources and services.